"startDT [UTC]","vpos","CH4 [ppm]","stdev(CH4) [ppm]","CO2 [ppm]","stdev(CO2) [ppm]","H2O_reported [%]","stdev(H2O_reported)","CavityPressure [torr]","CavityTemp [C]","OutletValve","CH4_dry [ppm]","CO2_dry [ppm]","DasTemp [C]","EtalonTemp [C]","WarmBoxTemp [C]","MPVPosition","T_ECpre [C]","T_EC1 [C]","T_EC2 [C]","p_inlet [hPa]","p_in [hPa]","p_out [hPa]","T_inlet [C]","RH_inlet [%]","dwpt_inlet [C]","T_vent [C]","RH_vent [%]","dwpt_vent [C]","flow_vent [l min-1]","flow_inlet [l min-1]","dwpt_sample [C]","T_room [C]"
2015-03-27 00:00:00,0.0,1.93304,0.00047,405.186,0.031,0.0991,0.0020,140.001,45.000,32121.48607,1.93491,405.669,32.004,45.068,45.000,0.00,0.09,-272.72,-272.77,9,682,0,18.8,3.6,-25.2,19.1,3.5,-25.4,5.73,1.91,-16.7,25.4
2015-03-27 00:01:00,0.0,1.93291,0.00050,405.160,0.039,0.1007,0.0018,139.999,45.000,32120.55313,1.93488,405.654,31.999,45.068,45.000,0.00,0.09,-272.72,-272.77,8,682,0,18.8,3.6,-25.2,19.1,3.5,-25.3,5.73,1.71,-16.7,25.4
2015-03-27 00:02:00,0.0,1.93261,0.00044,405.120,0.050,0.0987,0.0022,140.002,45.000,32122.16685,1.93447,405.598,32.000,45.068,45.000,0.00,0.09,-272.71,-272.77,8,681,0,18.8,3.6,-25.3,19.1,3.5,-25.3,5.73,1.79,-16.7,25.4
2015-03-27 00:03:00,0.0,1.93332,0.00027,405.197,0.033,0.0960,0.0016,140.001,45.000,32120.02064,1.93513,405.666,32.000,45.068,45.000,0.00,0.09,-272.73,-272.77,9,681,0,18.8,3.5,-25.7,19.1,3.6,-25.3,5.73,1.96,-16.7,25.4
2015-03-27 00:04:00,0.0,1.93368,0.00033,405.216,0.034,0.0936,0.0013,139.999,45.000,32119.72528,1.93544,405.672,32.000,45.068,45.000,0.00,0.09,-272.72,-272.78,8,682,0,18.8,3.4,-26.0,19.1,3.6,-25.3,5.73,1.82,-16.7,25.4
2015-03-27 00:05:00,0.0,1.93374,0.00032,405.255,0.028,0.0917,0.0020,139.998,45.000,32119.04434,1.93548,405.702,32.001,45.068,45.000,0.00,0.09,-272.71,-272.77,8,682,0,18.8,3.3,-26.2,19.1,3.6,-25.2,5.73,1.70,-16.7,25.4
2015-03-27 00:06:00,0.0,1.93377,0.00052,405.258,0.031,0.0899,0.0018,139.999,45.000,32121.86738,1.93544,405.695,32.000,45.068,45.000,0.00,0.09,-272.71,-272.77,9,682,0,18.8,3.3,-26.3,19.1,3.6,-25.2,5.73,1.89,-16.8,25.4
2015-03-27 00:07:00,0.0,1.93405,0.00029,405.269,0.034,0.0893,0.0020,139.999,45.000,32120.95604,1.93579,405.706,31.999,45.068,45.000,0.00,0.09,-272.73,-272.77,8,682,0,18.8,3.3,-26.4,19.1,3.6,-25.2,5.73,1.93,-16.8,25.4
2015-03-27 00:08:00,0.0,1.93422,0.00033,405.293,0.039,0.0889,0.0012,139.998,45.000,32122.74110,1.93591,405.726,32.000,45.068,45.000,0.00,0.09,-272.72,-272.78,8,682,0,18.8,3.3,-26.4,19.1,3.6,-25.1,5.73,1.72,-16.8,25.4
2015-03-27 00:09:00,0.0,1.93456,0.00037,405.345,0.036,0.0894,0.0014,139.999,45.000,32121.58406,1.93627,405.780,32.000,45.068,45.000,0.00,0.09,-272.71,-272.77,9,682,0,18.8,3.2,-26.5,19.1,3.6,-25.1,5.73,1.77,-16.8,25.4
2015-03-27 00:10:00,0.0,1.93471,0.00040,405.341,0.028,0.0886,0.0019,139.999,45.000,32123.92101,1.93639,405.775,31.998,45.068,45.000,0.00,0.09,-272.72,-272.78,8,682,0,18.8,3.2,-26.6,19.1,3.6,-25.1,5.73,1.97,-16.8,25.4
2015-03-27 00:11:00,0.0,1.93484,0.00029,405.340,0.023,0.0886,0.0015,139.998,45.000,32123.66062,1.93650,405.771,31.999,45.068,45.000,0.00,0.09,-272.72,-272.77,8,682,0,18.8,3.2,-26.6,19.0,3.6,-25.1,5.73,1.83,-16.8,25.4
2015-03-27 00:12:00,0.0,1.93493,0.00038,405.341,0.031,0.0888,0.0019,139.998,45.000,32125.74242,1.93664,405.776,31.995,45.068,45.000,0.00,0.09,-272.71,-272.77,9,682,0,18.8,3.2,-26.5,19.1,3.6,-25.1,5.73,1.69,-16.8,25.4
2015-03-27 00:13:00,0.0,1.93496,0.00026,405.372,0.043,0.0890,0.0019,140.001,45.000,32128.75772,1.93664,405.804,31.946,45.068,45.000,0.00,0.09,-272.72,-272.77,8,683,0,18.8,3.2,-26.5,19.0,3.6,-25.1,5.73,1.90,-16.8,25.4
2015-03-27 00:14:00,0.0,1.93532,0.00036,405.389,0.026,0.0895,0.0014,140.000,45.000,32126.05626,1.93701,405.825,31.948,45.068,45.000,0.00,0.09,-272.73,-272.77,9,682,0,18.8,3.3,-26.4,19.1,3.6,-25.1,5.73,1.94,-16.8,25.4
2015-03-27 00:15:00,0.0,1.93514,0.00032,405.384,0.039,0.0887,0.0022,140.000,45.000,32127.35705,1.93684,405.819,31.944,45.068,45.000,0.00,0.09,-272.71,-272.77,9,682,0,18.8,3.3,-26.4,19.0,3.6,-25.1,5.73,1.72,-16.8,25.4
2015-03-27 00:16:00,0.0,1.93524,0.00028,405.381,0.039,0.0891,0.0012,139.996,45.000,32129.83478,1.93694,405.814,31.938,45.068,45.000,0.00,0.09,-272.70,-272.77,8,683,0,18.7,3.2,-26.5,19.1,3.6,-25.1,5.73,1.78,-16.8,25.4
2015-03-27 00:17:00,0.0,1.93529,0.00029,405.402,0.027,0.0880,0.0019,139.997,45.000,32129.35337,1.93693,405.832,31.934,45.068,45.000,0.00,0.09,-272.73,-272.78,9,682,0,18.7,3.3,-26.5,19.1,3.6,-25.2,5.73,1.97,-16.8,25.3
2015-03-27 00:18:00,0.0,1.93535,0.00029,405.377,0.025,0.0891,0.0012,140.002,45.000,32132.27386,1.93706,405.810,31.933,45.068,45.000,0.00,0.09,-272.72,-272.77,9,683,0,18.8,3.3,-26.4,19.1,3.6,-25.2,5.73,1.81,-16.8,25.3
2015-03-27 00:19:00,0.0,1.93541,0.00043,405.391,0.035,0.0897,0.0018,139.999,45.000,32130.63491,1.93711,405.829,31.924,45.068,45.000,0.00,0.09,-272.71,-272.76,8,682,0,18.7,3.3,-26.4,19.0,3.6,-25.2,5.73,1.71,-16.8,25.3
2015-03-27 00:20:00,0.0,1.93556,0.00034,405.420,0.032,0.0894,0.0018,139.998,45.000,32129.34082,1.93726,405.855,31.905,45.068,45.000,0.00,0.09,-272.71,-272.77,9,682,0,18.7,3.3,-26.4,19.0,3.6,-25.3,5.73,1.92,-16.8,25.3
2015-03-27 00:21:00,0.0,1.93575,0.00037,405.439,0.035,0.0900,0.0014,140.000,45.000,32131.37964,1.93747,405.879,31.912,45.068,45.000,0.00,0.09,-272.73,-272.77,9,682,0,18.7,3.3,-26.4,19.0,3.6,-25.3,5.73,1.91,-16.8,25.4
2015-03-27 00:22:00,0.0,1.93593,0.00039,405.447,0.036,0.0893,0.0015,140.003,45.000,32130.63740,1.93762,405.882,31.921,45.068,45.000,0.00,0.09,-272.71,-272.77,8,682,0,18.7,3.3,-26.4,19.0,3.6,-25.3,5.73,1.70,-16.8,25.4
2015-03-27 00:23:00,0.0,1.93627,0.00033,405.469,0.034,0.0893,0.0013,140.002,45.000,32127.98805,1.93797,405.905,31.903,45.068,45.000,0.00,0.09,-272.72,-272.77,9,682,0,18.7,3.3,-26.4,19.0,3.6,-25.3,5.73,1.82,-16.8,25.3
2015-03-27 00:24:00,0.0,1.93611,0.00049,405.439,0.027,0.0889,0.0016,140.002,45.000,32128.71243,1.93784,405.874,31.894,45.068,45.000,0.00,0.09,-272.73,-272.77,9,682,0,18.7,3.3,-26.3,19.0,3.6,-25.3,5.73,1.97,-16.8,25.3
2015-03-27 00:25:00,0.0,1.93576,0.00029,405.401,0.034,0.0897,0.0015,140.003,45.000,32133.60135,1.93745,405.840,31.875,45.068,45.000,0.00,0.09,-272.72,-272.77,8,682,0,18.7,3.3,-26.3,19.0,3.5,-25.4,5.73,1.77,-16.8,25.3
2015-03-27 00:26:00,0.0,1.93588,0.00030,405.440,0.040,0.0904,0.0012,139.999,45.000,32131.26208,1.93758,405.880,31.859,45.068,45.000,0.00,0.09,-272.70,-272.77,9,682,0,18.7,3.3,-26.3,19.0,3.5,-25.4,5.73,1.72,-16.8,25.3
2015-03-27 00:27:00,0.0,1.93644,0.00040,405.477,0.030,0.0893,0.0020,139.998,45.000,32131.60625,1.93814,405.912,31.830,45.068,45.000,0.00,0.09,-272.72,-272.78,8,682,0,18.7,3.3,-26.4,19.0,3.5,-25.4,5.73,1.95,-16.9,25.3
2015-03-27 00:28:00,0.0,1.93632,0.00033,405.473,0.032,0.0891,0.0016,140.000,45.000,32133.27257,1.93801,405.909,31.815,45.069,45.001,0.00,0.09,-272.72,-272.77,8,682,0,18.7,3.3,-26.4,19.0,3.5,-25.4,5.73,1.87,-16.9,25.3
2015-03-27 00:29:00,0.0,1.93657,0.00038,405.492,0.033,0.0893,0.0016,140.000,45.000,32131.88030,1.93829,405.927,31.821,45.069,45.000,0.00,0.09,-272.71,-272.77,9,682,0,18.7,3.3,-26.4,19.0,3.5,-25.4,5.73,1.69,-16.9,25.3
2015-03-27 00:30:00,0.0,1.93660,0.00035,405.474,0.027,0.0897,0.0023,140.000,45.000,32134.82656,1.93829,405.912,31.855,45.068,45.001,0.00,0.09,-272.71,-272.77,8,683,0,18.7,3.3,-26.3,19.0,3.5,-25.4,5.73,1.86,-16.9,25.3
2015-03-27 00:31:00,0.0,1.93664,0.00034,405.500,0.034,0.0893,0.0016,139.999,45.000,32130.90342,1.93837,405.937,31.872,45.068,45.000,0.00,0.09,-272.72,-272.77,8,682,0,18.7,3.3,-26.3,19.0,3.5,-25.4,5.73,1.95,-16.8,25.3
2015-03-27 00:32:00,0.0,1.93634,0.00026,405.467,0.031,0.0895,0.0016,139.999,45.000,32128.19899,1.93803,405.904,31.874,45.068,45.000,0.00,0.09,-272.72,-272.77,9,682,0,18.7,3.3,-26.3,19.0,3.5,-25.4,5.73,1.73,-16.9,25.3
2015-03-27 00:33:00,0.0,1.93648,0.00040,405.475,0.034,0.0913,0.0021,140.000,45.000,32127.23528,1.93821,405.919,31.874,45.068,45.000,0.00,0.09,-272.71,-272.77,8,682,0,18.7,3.3,-26.3,19.0,3.5,-25.4,5.73,1.76,-16.9,25.3
2015-03-27 00:34:00,0.0,1.93640,0.00045,405.478,0.019,0.0896,0.0022,139.999,45.000,32127.04650,1.93813,405.915,31.878,45.068,45.000,0.00,0.09,-272.73,-272.78,9,682,0,18.7,3.3,-26.3,19.0,3.5,-25.4,5.73,1.96,-16.9,25.3
2015-03-27 00:35:00,0.0,1.93618,0.00030,405.473,0.031,0.0891,0.0012,140.002,45.000,32130.32422,1.93788,405.909,31.881,45.068,45.000,0.00,0.09,-272.72,-272.78,9,682,0,18.7,3.3,-26.4,19.0,3.5,-25.4,5.73,1.83,-16.9,25.3
2015-03-27 00:36:00,0.0,1.93628,0.00024,405.516,0.028,0.0893,0.0014,140.001,45.000,32126.44419,1.93798,405.950,31.875,45.068,45.000,0.00,0.09,-272.72,-272.77,8,682,0,18.7,3.3,-26.4,19.0,3.5,-25.4,5.73,1.69,-16.9,25.3
2015-03-27 00:37:00,0.0,1.93635,0.00048,405.496,0.024,0.0901,0.0015,140.001,45.000,32126.18257,1.93805,405.937,31.877,45.068,45.000,0.00,0.09,-272.72,-272.78,9,682,0,18.7,3.3,-26.3,19.0,3.5,-25.4,5.73,1.89,-16.9,25.3
2015-03-27 00:38:00,0.0,1.93648,0.00032,405.475,0.030,0.0895,0.0013,140.000,45.000,32128.56139,1.93820,405.913,31.878,45.068,45.000,0.00,0.09,-272.72,-272.77,9,682,0,18.7,3.3,-26.3,19.0,3.5,-25.5,5.73,1.94,-16.9,25.3
2015-03-27 00:39:00,0.0,1.93661,0.00036,405.492,0.037,0.0898,0.0017,140.000,45.000,32125.19406,1.93830,405.927,31.875,45.068,45.000,0.00,0.09,-272.72,-272.76,8,682,0,18.7,3.3,-26.3,19.0,3.5,-25.5,5.73,1.71,-16.9,25.3
2015-03-27 00:40:00,0.0,1.93663,0.00034,405.479,0.026,0.0898,0.0024,139.999,45.000,32130.08282,1.93835,405.919,31.877,45.068,45.000,0.00,0.09,-272.71,-272.77,9,682,0,18.7,3.3,-26.3,19.0,3.5,-25.5,5.73,1.78,-16.9,25.3
2015-03-27 00:41:00,0.0,1.93690,0.00034,405.513,0.040,0.0887,0.0015,139.997,45.000,32127.34322,1.93857,405.946,31.876,45.068,45.000,0.00,0.09,-272.72,-272.78,9,682,0,18.7,3.3,-26.4,19.0,3.5,-25.5,5.73,1.97,-16.9,25.3
2015-03-27 00:42:00,0.0,1.93669,0.00044,405.536,0.043,0.0892,0.0018,139.998,45.000,32126.28414,1.93840,405.969,31.888,45.068,45.000,0.00,0.09,-272.72,-272.77,8,682,0,18.7,3.3,-26.4,19.0,3.5,-25.5,5.73,1.81,-16.9,25.3
2015-03-27 00:43:00,0.0,1.93711,0.00027,405.549,0.027,0.0876,0.0018,140.001,45.000,32129.69977,1.93881,405.978,31.887,45.068,45.000,0.00,0.09,-272.71,-272.76,9,682,0,18.7,3.2,-26.6,19.0,3.5,-25.5,5.73,1.70,-16.9,25.3
2015-03-27 00:44:00,0.0,1.93730,0.00029,405.567,0.032,0.0877,0.0017,140.000,45.000,32128.48610,1.93894,405.994,31.878,45.068,45.000,0.00,0.09,-272.71,-272.78,9,682,0,18.7,3.2,-26.7,19.0,3.5,-25.5,5.73,1.92,-16.9,25.3
2015-03-27 00:45:00,0.0,1.93796,0.00031,405.583,0.035,0.0867,0.0018,140.002,45.000,32127.29507,1.93962,406.005,31.878,45.068,45.000,0.00,0.09,-272.72,-272.78,8,682,0,18.7,3.2,-26.7,19.0,3.5,-25.5,5.73,1.91,-16.9,25.3
2015-03-27 00:46:00,0.0,1.93758,0.00046,405.579,0.039,0.0871,0.0013,139.999,45.000,32128.66717,1.93926,406.007,31.876,45.068,45.000,0.00,0.09,-272.71,-272.77,9,682,0,18.7,3.2,-26.7,19.0,3.5,-25.5,5.73,1.70,-16.9,25.3
2015-03-27 00:47:00,0.0,1.93753,0.00040,405.570,0.027,0.0878,0.0015,140.001,45.000,32129.88654,1.93921,405.997,31.875,45.068,45.000,0.00,0.09,-272.72,-272.77,8,682,0,18.7,3.2,-26.6,19.0,3.5,-25.5,5.73,1.83,-16.9,25.4
2015-03-27 00:48:00,0.0,1.93771,0.00042,405.585,0.033,0.0882,0.0019,139.998,45.000,32126.39997,1.93936,406.016,31.875,45.068,45.000,0.00,0.09,-272.73,-272.78,8,682,0,18.7,3.2,-26.6,19.0,3.5,-25.5,5.73,1.96,-16.9,25.3
2015-03-27 00:49:00,0.0,1.93766,0.00038,405.570,0.028,0.0879,0.0013,139.998,45.000,32128.65185,1.93935,405.999,31.875,45.068,45.000,0.00,0.09,-272.71,-272.77,9,682,0,18.7,3.2,-26.6,19.0,3.5,-25.5,5.73,1.75,-16.9,25.3
2015-03-27 00:50:00,0.0,1.93761,0.00026,405.603,0.028,0.0887,0.0016,139.998,45.000,32126.85546,1.93929,406.035,31.885,45.068,45.000,0.00,0.09,-272.71,-272.77,8,682,0,18.7,3.2,-26.6,19.0,3.5,-25.5,5.73,1.74,-16.9,25.3
2015-03-27 00:51:00,0.0,1.93758,0.00038,405.609,0.029,0.0876,0.0017,139.998,45.000,32129.24480,1.93925,406.036,31.882,45.068,45.000,0.00,0.09,-272.73,-272.78,8,682,0,18.7,3.2,-26.6,19.0,3.5,-25.5,5.73,1.96,-16.9,25.3
2015-03-27 00:52:00,0.0,1.93753,0.00034,405.606,0.028,0.0876,0.0012,140.000,45.000,32128.37687,1.93923,406.034,31.881,45.068,45.000,0.00,0.09,-272.72,-272.76,9,682,0,18.7,3.2,-26.6,19.0,3.5,-25.5,5.73,1.83,-16.9,25.3
2015-03-27 00:53:00,0.0,1.93744,0.00037,405.613,0.028,0.0884,0.0018,139.999,45.000,32130.52699,1.93911,406.044,31.881,45.068,45.000,0.00,0.09,-272.71,-272.77,8,682,0,18.7,3.2,-26.6,19.0,3.5,-25.5,5.73,1.70,-16.9,25.3
2015-03-27 00:54:00,0.0,1.93742,0.00025,405.615,0.029,0.0874,0.0025,140.001,45.000,32129.97446,1.93911,406.042,31.876,45.068,45.000,0.00,0.09,-272.71,-272.78,9,682,0,18.7,3.2,-26.6,19.0,3.5,-25.5,5.73,1.92,-16.9,25.3
2015-03-27 00:55:00,0.0,1.93758,0.00039,405.588,0.028,0.0872,0.0013,140.000,45.000,32129.52501,1.93925,406.014,31.874,45.068,45.000,0.00,0.09,-272.72,-272.76,9,682,0,18.7,3.2,-26.6,19.0,3.5,-25.6,5.73,1.91,-16.9,25.3
2015-03-27 00:56:00,0.0,1.93734,0.00038,405.595,0.031,0.0883,0.0026,139.997,45.000,32128.02901,1.93903,406.027,31.875,45.068,45.000,0.00,0.09,-272.71,-272.77,8,682,0,18.7,3.2,-26.5,19.0,3.5,-25.6,5.73,1.70,-16.9,25.3
2015-03-27 00:57:00,0.0,1.93741,0.00035,405.605,0.034,0.0883,0.0018,139.999,45.000,32128.59490,1.93907,406.037,31.875,45.068,45.000,0.00,0.09,-272.71,-272.78,9,682,0,18.7,3.3,-26.5,19.0,3.5,-25.6,5.73,1.84,-16.9,25.3
2015-03-27 00:58:00,0.0,1.93767,0.00031,405.581,0.027,0.0883,0.0010,140.000,45.000,32127.33667,1.93934,406.012,31.875,45.068,45.000,0.00,0.09,-272.72,-272.78,8,682,0,18.7,3.2,-26.5,19.0,3.5,-25.6,5.73,1.97,-17.0,25.3
2015-03-27 00:59:00,0.0,1.93728,0.00031,405.585,0.032,0.0886,0.0015,140.001,45.000,32129.00117,1.93901,406.018,31.876,45.068,45.000,0.00,0.09,-272.72,-272.76,8,682,0,18.7,3.2,-26.5,19.0,3.5,-25.6,5.73,1.73,-17.0,25.3
2015-03-27 01:00:00,0.0,1.93746,0.00035,405.572,0.030,0.0889,0.0015,139.999,45.000,32128.66605,1.93912,406.007,31.875,45.068,45.000,0.00,0.09,-272.72,-272.77,9,682,0,18.7,3.2,-26.5,19.0,3.5,-25.6,5.73,1.76,-17.0,25.3
2015-03-27 01:01:00,0.0,1.93722,0.00034,405.587,0.032,0.0877,0.0021,140.001,45.000,32127.46242,1.93895,406.014,31.875,45.068,45.000,0.00,0.09,-272.72,-272.78,8,682,0,18.7,3.3,-26.5,19.0,3.5,-25.6,5.73,1.98,-17.0,25.3
2015-03-27 01:02:00,0.0,1.93706,0.00050,405.566,0.035,0.0897,0.0013,140.000,45.000,32128.62324,1.93877,406.003,31.875,45.068,45.000,0.00,0.09,-272.72,-272.77,8,682,0,18.7,3.2,-26.5,19.0,3.5,-25.6,5.73,1.80,-17.0,25.3
2015-03-27 01:03:00,0.0,1.93741,0.00033,405.571,0.031,0.0872,0.0022,139.999,45.000,32129.41692,1.93905,405.999,31.874,45.068,45.000,0.00,0.09,-272.72,-272.77,9,682,0,18.7,3.2,-26.6,19.0,3.5,-25.6,5.73,1.71,-17.0,25.3
2015-03-27 01:04:00,0.0,1.93776,0.00031,405.594,0.030,0.0858,0.0020,139.998,45.000,32127.38420,1.93938,406.013,31.875,45.068,45.000,0.00,0.09,-272.72,-272.77,8,682,0,18.7,3.2,-26.8,19.0,3.5,-25.6,5.73,1.95,-17.0,25.3
2015-03-27 01:05:00,0.0,1.93769,0.00047,405.620,0.033,0.0852,0.0015,140.000,45.000,32126.10847,1.93934,406.037,31.874,45.068,45.000,0.00,0.09,-272.72,-272.77,9,682,0,18.7,3.1,-26.9,19.0,3.5,-25.6,5.73,1.87,-17.0,25.3
2015-03-27 01:06:00,0.0,1.93783,0.00045,405.590,0.025,0.0841,0.0014,140.000,45.000,32125.33518,1.93942,406.000,31.874,45.068,45.000,0.00,0.09,-272.70,-272.77,9,682,0,18.7,3.1,-27.0,19.0,3.5,-25.6,5.73,1.69,-17.0,25.3
2015-03-27 01:07:00,0.0,1.93789,0.00031,405.606,0.033,0.0834,0.0016,140.001,45.000,32127.66669,1.93947,406.012,31.867,45.068,45.000,0.00,0.09,-272.71,-272.77,8,682,0,18.7,3.1,-27.1,19.0,3.5,-25.6,5.73,1.89,-17.0,25.3
2015-03-27 01:08:00,0.0,1.93835,0.00028,405.625,0.037,0.0838,0.0021,140.000,45.000,32124.02430,1.93995,406.035,31.840,45.068,45.000,0.00,0.09,-272.73,-272.77,9,682,0,18.7,3.1,-27.1,19.0,3.5,-25.6,5.73,1.93,-17.0,25.3
2015-03-27 01:09:00,0.0,1.93810,0.00035,405.605,0.035,0.0840,0.0018,139.999,45.000,32125.81434,1.93972,406.016,31.822,45.068,45.000,0.00,0.09,-272.71,-272.77,8,682,0,18.7,3.0,-27.2,19.0,3.5,-25.6,5.73,1.69,-17.0,25.3
2015-03-27 01:10:00,0.0,1.93857,0.00029,405.652,0.036,0.0833,0.0013,139.994,45.000,32123.79330,1.94012,406.059,31.813,45.068,45.000,0.00,0.09,-272.71,-272.78,8,682,0,18.7,3.1,-27.2,19.0,3.5,-25.6,5.73,1.83,-17.0,25.3
2015-03-27 01:11:00,0.0,1.93877,0.00029,405.657,0.022,0.0822,0.0014,140.000,45.000,32123.00989,1.94033,406.056,31.812,45.068,45.000,0.00,0.09,-272.72,-272.78,9,682,0,18.7,3.1,-27.1,19.0,3.5,-25.6,5.73,1.97,-17.0,25.3
2015-03-27 01:12:00,0.0,1.93898,0.00044,405.663,0.028,0.0831,0.0018,140.000,45.000,32123.08129,1.94056,406.069,31.831,45.069,45.000,0.00,0.09,-272.72,-272.77,7,682,0,18.7,3.0,-27.2,19.0,3.4,-25.7,5.73,1.74,-17.0,25.3
2015-03-27 01:13:00,0.0,1.93900,0.00034,405.665,0.022,0.0825,0.0017,140.000,45.000,32125.24311,1.94057,406.069,31.855,45.068,45.000,0.00,0.09,-272.71,-272.77,8,682,0,18.7,3.0,-27.2,19.0,3.4,-25.7,5.73,1.76,-17.0,25.3
2015-03-27 01:14:00,0.0,1.93905,0.00035,405.688,0.038,0.0828,0.0019,139.999,45.000,32125.45487,1.94062,406.092,31.815,45.068,45.000,0.00,0.09,-272.72,-272.78,9,682,0,18.7,3.0,-27.3,19.0,3.4,-25.7,5.73,1.97,-17.0,25.3
2015-03-27 01:15:00,0.0,1.93946,0.00033,405.677,0.033,0.0817,0.0021,140.000,45.000,32124.00787,1.94103,406.076,31.813,45.068,45.000,0.00,0.09,-272.72,-272.77,7,682,0,18.7,3.0,-27.3,19.0,3.4,-25.7,5.73,1.78,-17.0,25.3
2015-03-27 01:16:00,0.0,1.93968,0.00036,405.686,0.038,0.0823,0.0023,140.000,45.000,32123.38393,1.94124,406.088,31.791,45.068,45.000,0.00,0.09,-272.72,-272.77,9,682,0,18.7,3.0,-27.3,19.0,3.4,-25.7,5.73,1.72,-17.0,25.3
2015-03-27 01:17:00,0.0,1.93979,0.00025,405.715,0.037,0.0808,0.0014,139.998,45.000,32123.94942,1.94133,406.109,31.767,45.068,45.000,0.00,0.09,-272.71,-272.76,8,682,0,18.7,3.0,-27.4,19.0,3.4,-25.7,5.73,1.97,-17.1,25.3
2015-03-27 01:18:00,0.0,1.93996,0.00050,405.705,0.033,0.0805,0.0014,139.998,45.000,32126.49212,1.94149,406.099,31.780,45.068,45.000,0.00,0.09,-272.73,-272.77,8,682,0,18.7,3.0,-27.4,19.0,3.4,-25.7,5.73,1.84,-17.1,25.3
2015-03-27 01:19:00,0.0,1.94011,0.00040,405.733,0.026,0.0812,0.0022,140.001,45.000,32126.60403,1.94169,406.129,31.767,45.069,45.000,0.00,0.09,-272.72,-272.77,9,682,0,18.7,3.0,-27.5,19.0,3.4,-25.8,5.73,1.69,-17.1,25.3
2015-03-27 01:20:00,0.0,1.93993,0.00032,405.710,0.037,0.0806,0.0021,140.000,45.000,32128.47675,1.94146,406.104,31.754,45.068,45.000,0.00,0.09,-272.71,-272.76,8,683,0,18.7,3.0,-27.4,19.0,3.4,-25.8,5.73,1.93,-17.1,25.3
2015-03-27 01:21:00,0.0,1.93997,0.00026,405.738,0.034,0.0814,0.0019,139.999,45.000,32125.96144,1.94154,406.136,31.750,45.068,45.000,0.00,0.09,-272.72,-272.78,8,682,0,18.7,3.0,-27.4,19.0,3.4,-25.8,5.73,1.90,-17.1,25.3
2015-03-27 01:22:00,0.0,1.93989,0.00051,405.710,0.021,0.0821,0.0016,140.000,45.000,32125.70795,1.94143,406.109,31.750,45.069,45.000,0.00,0.09,-272.71,-272.78,9,682,0,18.7,3.0,-27.3,19.0,3.4,-25.8,5.73,1.68,-17.1,25.3
2015-03-27 01:23:00,0.0,1.93991,0.00040,405.730,0.025,0.0819,0.0016,139.999,45.000,32127.89818,1.94146,406.131,31.750,45.068,45.000,0.00,0.09,-272.71,-272.77,8,683,0,18.7,3.0,-27.3,19.0,3.4,-25.9,5.73,1.88,-17.1,25.3
2015-03-27 01:24:00,0.0,1.93993,0.00040,405.700,0.031,0.0830,0.0015,139.997,45.000,32126.27610,1.94156,406.106,31.744,45.068,45.000,0.00,0.09,-272.72,-272.77,9,682,0,18.7,3.0,-27.2,19.0,3.4,-25.8,5.73,1.94,-17.1,25.3
2015-03-27 01:25:00,0.0,1.93994,0.00028,405.733,0.037,0.0836,0.0017,140.000,45.000,32124.55715,1.94150,406.139,31.748,45.068,45.000,0.00,0.09,-272.72,-272.78,9,682,0,18.7,3.1,-27.2,19.0,3.4,-25.8,5.73,1.70,-17.1,25.3
2015-03-27 01:26:00,0.0,1.93967,0.00029,405.726,0.034,0.0831,0.0010,139.999,45.000,32124.38500,1.94128,406.132,31.745,45.068,45.000,0.00,0.09,-272.71,-272.77,7,682,0,18.7,3.1,-27.1,19.0,3.4,-25.9,5.73,1.82,-17.1,25.3
2015-03-27 01:27:00,0.0,1.93947,0.00024,405.711,0.036,0.0841,0.0013,140.001,45.000,32123.42206,1.94107,406.121,31.746,45.068,45.000,0.00,0.09,-272.72,-272.77,9,682,0,18.7,3.1,-27.0,19.0,3.4,-25.9,5.73,1.98,-17.1,25.3
2015-03-27 01:28:00,0.0,1.93961,0.00036,405.712,0.034,0.0845,0.0020,139.999,45.000,32123.21424,1.94127,406.127,31.750,45.068,45.000,0.00,0.09,-272.72,-272.78,8,682,0,18.7,3.1,-26.9,19.0,3.4,-25.9,5.73,1.74,-17.1,25.3
2015-03-27 01:29:00,0.0,1.93934,0.00027,405.675,0.032,0.0859,0.0017,140.000,45.000,32128.20659,1.94097,406.093,31.746,45.068,45.000,0.00,0.09,-272.72,-272.78,8,683,0,18.7,3.1,-26.9,19.0,3.4,-26.0,5.73,1.77,-17.1,25.3
2015-03-27 01:30:00,0.0,1.93893,0.00037,405.654,0.030,0.0857,0.0015,139.998,45.000,32125.12689,1.94055,406.073,31.743,45.068,45.000,0.00,0.09,-272.71,-272.77,9,682,0,18.7,3.1,-26.9,19.0,3.4,-25.9,5.73,1.98,-17.1,25.3
2015-03-27 01:31:00,0.0,1.93916,0.00026,405.664,0.025,0.0850,0.0014,140.001,45.000,32122.73797,1.94080,406.079,31.746,45.068,45.000,0.00,0.09,-272.73,-272.77,7,682,0,18.7,3.1,-26.9,19.0,3.4,-25.9,5.73,1.79,-17.1,25.3
2015-03-27 01:32:00,0.0,1.93905,0.00045,405.670,0.034,0.0858,0.0018,140.000,45.000,32124.77409,1.94066,406.089,31.745,45.068,45.000,0.00,0.09,-272.72,-272.78,8,682,0,18.7,3.1,-26.9,19.0,3.4,-25.9,5.73,1.72,-17.1,25.3
2015-03-27 01:33:00,0.0,1.93922,0.00027,405.671,0.045,0.0853,0.0013,140.000,45.000,32126.32342,1.94087,406.085,31.749,45.068,45.000,0.00,0.09,-272.72,-272.76,9,682,0,18.7,3.1,-26.9,19.0,3.4,-25.9,5.73,1.97,-17.1,25.3
2015-03-27 01:34:00,0.0,1.93888,0.00029,405.686,0.032,0.0863,0.0023,140.001,45.000,32126.94322,1.94054,406.109,31.750,45.068,45.000,0.00,0.09,-272.72,-272.77,8,682,0,18.7,3.2,-26.8,19.0,3.4,-25.9,5.73,1.84,-17.1,25.3
2015-03-27 01:35:00,0.0,1.93912,0.00044,405.681,0.039,0.0866,0.0021,140.002,45.000,32126.77377,1.94076,406.103,31.749,45.068,45.000,0.00,0.09,-272.72,-272.76,9,682,0,18.7,3.2,-26.8,19.0,3.4,-25.9,5.73,1.70,-17.1,25.3
2015-03-27 01:36:00,0.0,1.93896,0.00028,405.676,0.040,0.0870,0.0019,140.000,45.000,32127.33447,1.94062,406.101,31.734,45.068,45.000,0.00,0.09,-272.71,-272.77,8,683,0,18.7,3.2,-26.7,19.0,3.4,-25.9,5.73,1.94,-17.1,25.3
2015-03-27 01:37:00,0.0,1.93920,0.00041,405.692,0.027,0.0881,0.0014,139.999,45.000,32129.66526,1.94089,406.123,31.712,45.068,45.000,0.00,0.09,-272.72,-272.77,8,682,0,18.7,3.2,-26.6,19.0,3.4,-25.9,5.73,1.89,-17.1,25.3
2015-03-27 01:38:00,0.0,1.93894,0.00031,405.692,0.028,0.0882,0.0010,140.000,45.000,32128.66919,1.94059,406.121,31.688,45.068,45.000,0.00,0.09,-272.71,-272.78,9,683,0,18.7,3.3,-26.5,19.0,3.4,-26.0,5.73,1.68,-17.1,25.3
2015-03-27 01:39:00,0.0,1.93886,0.00035,405.683,0.025,0.0884,0.0011,139.999,45.000,32128.43580,1.94061,406.115,31.688,45.068,45.000,0.00,0.09,-272.71,-272.78,8,683,0,18.7,3.3,-26.4,19.0,3.4,-25.9,5.73,1.90,-17.1,25.3
2015-03-27 01:40:00,0.0,1.93856,0.00027,405.661,0.035,0.0898,0.0013,139.997,45.000,32130.99172,1.94026,406.101,31.683,45.069,45.000,0.00,0.09,-272.72,-272.77,9,683,0,18.7,3.3,-26.3,19.0,3.4,-25.9,5.73,1.93,-17.1,25.3
2015-03-27 01:41:00,0.0,1.93839,0.00028,405.620,0.035,0.0908,0.0012,139.999,45.000,32134.38972,1.94015,406.063,31.684,45.069,45.000,0.00,0.09,-272.72,-272.78,9,683,0,18.7,3.3,-26.2,19.0,3.4,-25.9,5.73,1.69,-17.2,25.3
2015-03-27 01:42:00,0.0,1.93826,0.00045,405.631,0.022,0.0905,0.0015,139.998,45.000,32135.27618,1.93998,406.073,31.678,45.069,45.000,0.00,0.09,-272.72,-272.78,8,683,0,18.7,3.3,-26.2,19.0,3.4,-25.9,5.73,1.85,-17.2,25.3
2015-03-27 01:43:00,0.0,1.93893,0.00044,405.680,0.039,0.0894,0.0014,139.998,45.000,32130.55459,1.94057,406.115,31.678,45.069,45.000,0.00,0.09,-272.72,-272.76,9,682,0,18.7,3.3,-26.3,19.0,3.4,-25.9,5.73,1.96,-17.2,25.3
2015-03-27 01:44:00,0.0,1.93916,0.00024,405.663,0.029,0.0896,0.0013,139.997,45.000,32126.26508,1.94088,406.102,31.665,45.068,45.000,0.00,0.09,-272.72,-272.77,8,682,0,18.7,3.3,-26.4,19.0,3.4,-25.9,5.73,1.71,-17.2,25.3
2015-03-27 01:45:00,0.0,1.93940,0.00038,405.668,0.036,0.0886,0.0018,140.001,45.000,32131.15663,1.94109,406.102,31.651,45.068,45.000,0.00,0.09,-272.72,-272.78,8,683,0,18.7,3.3,-26.4,19.0,3.4,-25.9,5.73,1.80,-17.2,25.3
2015-03-27 01:46:00,0.0,1.93933,0.00042,405.663,0.033,0.0904,0.0014,140.000,45.000,32130.50563,1.94107,406.103,31.642,45.068,45.000,0.00,0.09,-272.71,-272.78,9,683,0,18.7,3.3,-26.3,19.0,3.4,-25.9,5.73,1.98,-17.1,25.3
2015-03-27 01:47:00,0.0,1.93898,0.00035,405.675,0.025,0.0914,0.0016,139.999,45.000,32132.50612,1.94074,406.121,31.625,45.068,45.000,0.00,0.09,-272.72,-272.77,8,683,0,18.7,3.3,-26.2,19.0,3.4,-25.8,5.73,1.74,-17.2,25.3